Time,TemperatureF,DewpointF,PressureIn,WindDirection,WindDirectionDegrees,WindSpeedMPH,WindSpeedGustMPH,Humidity,HourlyPrecipIn,Conditions,Clouds,dailyrainin,SoftwareType,DateUTC
2013-04-14 00:07:00,37.0,32.0,29.99,WSW,240,0.0,-999.0,81,-99.99,,,0.00,weatherlink.com 1.10,2013-04-14 04:07:00,
2013-04-14 00:22:00,36.0,31.0,29.98,WSW,240,0.0,-999.0,82,-99.99,,,0.00,weatherlink.com 1.10,2013-04-14 04:22:00,
2013-04-14 00:37:00,36.2,32.0,29.99,WSW,240,0.0,-999.0,84,-99.99,,,0.00,weatherlink.com 1.10,2013-04-14 04:37:00,
2013-04-14 00:52:00,37.0,32.0,29.99,WSW,239,0.0,-999.0,83,-99.99,,,0.00,weatherlink.com 1.10,2013-04-14 04:52:00,
2013-04-14 01:07:00,37.0,32.0,29.99,WSW,239,0.0,-999.0,83,-99.99,,,0.00,weatherlink.com 1.10,2013-04-14 05:07:00,
2013-04-14 01:22:00,37.2,33.0,29.99,WSW,238,0.0,-999.0,83,-99.99,,,0.00,weatherlink.com 1.10,2013-04-14 05:22:00,
2013-04-14 01:37:00,37.3,33.0,29.99,WSW,239,0.0,-999.0,84,-99.99,,,0.00,weatherlink.com 1.10,2013-04-14 05:37:00,
2013-04-14 01:52:00,37.6,33.0,30.00,WSW,250,0.0,-999.0,84,-99.99,,,0.00,weatherlink.com 1.10,2013-04-14 05:52:00,
2013-04-14 02:08:00,38.1,33.0,30.00,WSW,251,0.0,-999.0,83,-99.99,,,0.00,weatherlink.com 1.10,2013-04-14 06:08:00,
2013-04-14 02:23:00,38.2,34.0,30.00,WSW,248,0.0,-999.0,83,-99.99,,,0.00,weatherlink.com 1.10,2013-04-14 06:23:00,
2013-04-14 02:38:00,38.2,33.0,29.99,WSW,248,0.0,-999.0,82,-99.99,,,0.00,weatherlink.com 1.10,2013-04-14 06:38:00,
2013-04-14 02:53:00,38.6,34.0,30.00,WSW,248,0.0,-999.0,82,-99.99,,,0.00,weatherlink.com 1.10,2013-04-14 06:53:00,
2013-04-14 03:08:00,38.9,34.0,30.00,WSW,248,0.0,-999.0,81,-99.99,,,0.00,weatherlink.com 1.10,2013-04-14 07:08:00,
2013-04-14 03:23:00,39.1,34.0,29.99,WSW,248,0.0,-999.0,81,-99.99,,,0.00,weatherlink.com 1.10,2013-04-14 07:23:00,
2013-04-14 03:38:00,39.3,34.0,29.99,WSW,248,0.0,-999.0,81,-99.99,,,0.00,weatherlink.com 1.10,2013-04-14 07:38:00,
2013-04-14 03:53:00,39.4,34.0,29.99,WSW,248,0.0,-999.0,81,-99.99,,,0.00,weatherlink.com 1.10,2013-04-14 07:53:00,
2013-04-14 04:08:00,39.4,34.0,29.99,WSW,248,0.0,-999.0,81,-99.99,,,0.00,weatherlink.com 1.10,2013-04-14 08:08:00,
2013-04-14 04:23:00,39.5,34.0,30.00,WSW,248,0.0,-999.0,81,-99.99,,,0.00,weatherlink.com 1.10,2013-04-14 08:23:00,
2013-04-14 04:39:00,39.4,34.0,30.01,WSW,248,0.0,-999.0,80,-99.99,,,0.00,weatherlink.com 1.10,2013-04-14 08:39:00,
2013-04-14 04:53:00,39.2,34.0,30.01,WSW,248,0.0,-999.0,80,-99.99,,,0.00,weatherlink.com 1.10,2013-04-14 08:53:00,
2013-04-14 05:09:00,39.2,34.0,30.02,ESE,118,0.0,-999.0,81,-99.99,,,0.00,weatherlink.com 1.10,2013-04-14 09:09:00,
2013-04-14 05:24:00,39.1,34.0,30.02,ESE,117,0.0,-999.0,82,-99.99,,,0.00,weatherlink.com 1.10,2013-04-14 09:24:00,
2013-04-14 05:39:00,38.8,34.0,30.02,ESE,118,0.0,-999.0,84,-99.99,,,0.00,weatherlink.com 1.10,2013-04-14 09:39:00,
2013-04-14 05:54:00,38.7,34.0,30.02,ESE,111,2.0,-999.0,83,-99.99,,,0.00,weatherlink.com 1.10,2013-04-14 09:54:00,
2013-04-14 06:09:00,38.7,34.0,30.03,ESE,103,4.0,-999.0,83,-99.99,,,0.00,weatherlink.com 1.10,2013-04-14 10:09:00,
2013-04-14 06:24:00,38.7,34.0,30.02,East,90,2.0,-999.0,82,-99.99,,,0.00,weatherlink.com 1.10,2013-04-14 10:24:00,
2013-04-14 06:39:00,38.6,34.0,30.02,East,85,2.0,-999.0,82,-99.99,,,0.00,weatherlink.com 1.10,2013-04-14 10:39:00,
2013-04-14 06:54:00,38.5,33.0,30.01,East,80,1.0,-999.0,81,-99.99,,,0.00,weatherlink.com 1.10,2013-04-14 10:54:00,
2013-04-14 07:09:00,38.5,32.0,30.00,ENE,74,3.0,-999.0,78,-99.99,,,0.00,weatherlink.com 1.10,2013-04-14 11:09:00,
2013-04-14 07:24:00,38.6,32.0,30.01,ENE,70,2.0,-999.0,76,-99.99,,,0.00,weatherlink.com 1.10,2013-04-14 11:24:00,
2013-04-14 07:39:00,38.5,32.0,30.01,ENE,68,1.0,-999.0,77,-99.99,,,0.00,weatherlink.com 1.10,2013-04-14 11:39:00,
2013-04-14 07:54:00,38.6,32.0,30.01,ENE,77,3.0,-999.0,77,-99.99,,,0.00,weatherlink.com 1.10,2013-04-14 11:54:00,
2013-04-14 08:09:00,39.0,32.0,30.00,ENE,74,1.0,-999.0,75,-99.99,,,0.00,weatherlink.com 1.10,2013-04-14 12:09:00,
2013-04-14 08:25:00,39.3,32.0,29.99,ENE,76,3.0,-999.0,74,-99.99,,,0.00,weatherlink.com 1.10,2013-04-14 12:25:00,
2013-04-14 08:40:00,39.3,32.0,30.00,East,84,2.0,-999.0,74,-99.99,,,0.00,weatherlink.com 1.10,2013-04-14 12:40:00,
2013-04-14 08:55:00,40.6,32.0,30.00,ENE,63,6.0,-999.0,71,-99.99,,,0.00,weatherlink.com 1.10,2013-04-14 12:55:00,
2013-04-14 09:10:00,40.5,31.0,30.01,East,94,6.0,-999.0,70,-99.99,,,0.00,weatherlink.com 1.10,2013-04-14 13:10:00,
2013-04-14 09:26:00,40.7,32.0,30.02,East,92,5.0,-999.0,72,-99.99,,,0.00,weatherlink.com 1.10,2013-04-14 13:26:00,
2013-04-14 09:40:00,40.7,33.0,30.01,East,100,4.0,-999.0,74,-99.99,,,0.00,weatherlink.com 1.10,2013-04-14 13:40:00,
2013-04-14 09:55:00,41.0,33.0,30.02,ESE,106,8.0,-999.0,74,-99.99,,,0.00,weatherlink.com 1.10,2013-04-14 13:55:00,
2013-04-14 10:10:00,41.2,34.0,30.02,ESE,107,4.0,-999.0,75,-99.99,,,0.00,weatherlink.com 1.10,2013-04-14 14:10:00,
2013-04-14 10:25:00,41.3,34.0,30.02,ESE,115,5.0,-999.0,76,-99.99,,,0.00,weatherlink.com 1.10,2013-04-14 14:25:00,
2013-04-14 10:40:00,41.7,35.0,30.00,ESE,107,7.0,-999.0,77,-99.99,,,0.00,weatherlink.com 1.10,2013-04-14 14:40:00,
2013-04-14 10:55:00,42.1,35.0,30.00,East,98,6.0,-999.0,76,-99.99,,,0.00,weatherlink.com 1.10,2013-04-14 14:55:00,
2013-04-14 11:11:00,42.5,36.0,30.00,ESE,109,8.0,-999.0,78,-99.99,,,0.00,weatherlink.com 1.10,2013-04-14 15:11:00,
2013-04-14 11:26:00,43.2,37.0,30.00,East,94,5.0,-999.0,78,-99.99,,,0.00,weatherlink.com 1.10,2013-04-14 15:26:00,
2013-04-14 11:41:00,43.8,37.0,29.98,ESE,105,9.0,-999.0,78,-99.99,,,0.00,weatherlink.com 1.10,2013-04-14 15:41:00,
2013-04-14 11:56:00,45.6,38.0,29.98,East,96,8.0,-999.0,75,-99.99,,,0.00,weatherlink.com 1.10,2013-04-14 15:56:00,
2013-04-14 12:11:00,45.8,38.0,29.97,ESE,110,11.0,-999.0,75,-99.99,,,0.00,weatherlink.com 1.10,2013-04-14 16:11:00,
2013-04-14 12:26:00,47.0,38.0,29.97,East,101,4.0,-999.0,72,-99.99,,,0.00,weatherlink.com 1.10,2013-04-14 16:26:00,
2013-04-14 12:56:00,49.7,39.0,29.95,East,96,12.0,-999.0,68,-99.99,,,0.00,weatherlink.com 1.10,2013-04-14 16:56:00,
2013-04-14 13:12:00,50.1,40.0,29.94,ESE,119,11.0,-999.0,68,-99.99,,,0.00,weatherlink.com 1.10,2013-04-14 17:12:00,
2013-04-14 13:27:00,50.6,41.0,29.92,SE,124,5.0,-999.0,69,-99.99,,,0.00,weatherlink.com 1.10,2013-04-14 17:27:00,
2013-04-14 13:42:00,52.1,43.0,29.92,ESE,121,11.0,-999.0,71,-99.99,,,0.00,weatherlink.com 1.10,2013-04-14 17:42:00,
2013-04-14 13:57:00,53.6,44.0,29.91,East,89,5.0,-999.0,70,-99.99,,,0.00,weatherlink.com 1.10,2013-04-14 17:57:00,
2013-04-14 14:12:00,54.6,44.0,29.91,ESE,117,6.0,-999.0,68,-99.99,,,0.00,weatherlink.com 1.10,2013-04-14 18:12:00,
2013-04-14 14:27:00,54.9,44.0,29.91,East,101,6.0,-999.0,67,-99.99,,,0.00,weatherlink.com 1.10,2013-04-14 18:27:00,
2013-04-14 14:42:00,56.2,45.0,29.90,SSE,155,2.0,-999.0,66,-99.99,,,0.00,weatherlink.com 1.10,2013-04-14 18:42:00,
2013-04-14 14:57:00,56.8,44.0,29.90,ESE,110,16.0,-999.0,63,-99.99,,,0.00,weatherlink.com 1.10,2013-04-14 18:57:00,
2013-04-14 15:12:00,57.8,44.0,29.89,ESE,104,9.0,-999.0,61,-99.99,,,0.00,weatherlink.com 1.10,2013-04-14 19:12:00,
2013-04-14 15:27:00,58.1,46.0,29.88,ESE,110,8.0,-999.0,64,-99.99,,,0.00,weatherlink.com 1.10,2013-04-14 19:27:00,
2013-04-14 15:43:00,58.7,46.0,29.88,ESE,109,11.0,-999.0,64,-99.99,,,0.00,weatherlink.com 1.10,2013-04-14 19:43:00,
2013-04-14 15:58:00,58.0,46.0,29.87,ESE,112,9.0,-999.0,64,-99.99,,,0.00,weatherlink.com 1.10,2013-04-14 19:58:00,
2013-04-14 16:13:00,58.5,46.0,29.86,ESE,116,11.0,-999.0,64,-99.99,,,0.00,weatherlink.com 1.10,2013-04-14 20:13:00,
2013-04-14 16:28:00,59.7,47.0,29.85,ESE,120,11.0,-999.0,64,-99.99,,,0.00,weatherlink.com 1.10,2013-04-14 20:28:00,
2013-04-14 16:43:00,59.8,47.0,29.84,SE,134,9.0,-999.0,63,-99.99,,,0.00,weatherlink.com 1.10,2013-04-14 20:43:00,
2013-04-14 16:58:00,59.7,47.0,29.84,ESE,115,7.0,-999.0,64,-99.99,,,0.00,weatherlink.com 1.10,2013-04-14 20:58:00,
2013-04-14 17:13:00,60.3,48.0,29.84,ESE,113,11.0,-999.0,64,-99.99,,,0.00,weatherlink.com 1.10,2013-04-14 21:13:00,
2013-04-14 17:28:00,61.1,49.0,29.83,ESE,107,8.0,-999.0,64,-99.99,,,0.00,weatherlink.com 1.10,2013-04-14 21:28:00,
2013-04-14 17:43:00,60.6,48.0,29.83,ESE,119,8.0,-999.0,63,-99.99,,,0.00,weatherlink.com 1.10,2013-04-14 21:43:00,
2013-04-14 17:58:00,60.9,48.0,29.83,East,98,18.0,-999.0,63,-99.99,,,0.00,weatherlink.com 1.10,2013-04-14 21:58:00,
2013-04-14 18:14:00,61.0,48.0,29.83,ESE,107,13.0,-999.0,63,-99.99,,,0.00,weatherlink.com 1.10,2013-04-14 22:14:00,
2013-04-14 18:29:00,61.1,48.0,29.83,ESE,120,7.0,-999.0,63,-99.99,,,0.00,weatherlink.com 1.10,2013-04-14 22:29:00,
2013-04-14 18:44:00,60.9,49.0,29.83,ESE,113,9.0,-999.0,64,-99.99,,,0.00,weatherlink.com 1.10,2013-04-14 22:44:00,
2013-04-14 18:59:00,60.7,49.0,29.82,ESE,112,11.0,-999.0,65,-99.99,,,0.00,weatherlink.com 1.10,2013-04-14 22:59:00,
2013-04-14 19:14:00,60.4,48.0,29.81,SE,146,11.0,-999.0,65,-99.99,,,0.00,weatherlink.com 1.10,2013-04-14 23:14:00,
2013-04-14 19:29:00,60.0,49.0,29.80,East,100,11.0,-999.0,67,-99.99,,,0.00,weatherlink.com 1.10,2013-04-14 23:29:00,
2013-04-14 19:44:00,59.1,48.0,29.80,SE,126,11.0,-999.0,68,-99.99,,,0.00,weatherlink.com 1.10,2013-04-14 23:44:00,
2013-04-14 19:59:00,58.1,48.0,29.80,ESE,111,12.0,-999.0,70,-99.99,,,0.00,weatherlink.com 1.10,2013-04-14 23:59:00,
2013-04-14 20:14:00,57.4,48.0,29.80,East,97,9.0,-999.0,72,-99.99,,,0.00,weatherlink.com 1.10,2013-04-15 00:14:00,
2013-04-14 20:29:00,56.7,48.0,29.80,SE,140,11.0,-999.0,73,-99.99,,,0.00,weatherlink.com 1.10,2013-04-15 00:29:00,
2013-04-14 20:44:00,56.2,48.0,29.80,ESE,103,8.0,-999.0,74,-99.99,,,0.00,weatherlink.com 1.10,2013-04-15 00:44:00,
2013-04-14 20:59:00,55.4,48.0,29.80,ESE,115,7.0,-999.0,75,-99.99,,,0.00,weatherlink.com 1.10,2013-04-15 00:59:00,
2013-04-14 21:15:00,55.2,47.0,29.80,ESE,121,8.0,-999.0,75,-99.99,,,0.00,weatherlink.com 1.10,2013-04-15 01:15:00,
2013-04-14 21:30:00,54.8,47.0,29.80,ESE,105,7.0,-999.0,75,-99.99,,,0.00,weatherlink.com 1.10,2013-04-15 01:30:00,
2013-04-14 21:45:00,54.3,47.0,29.80,ESE,112,11.0,-999.0,76,-99.99,,,0.00,weatherlink.com 1.10,2013-04-15 01:45:00,
2013-04-14 22:00:00,53.6,47.0,29.81,SSE,156,9.0,-999.0,78,-99.99,,,0.00,weatherlink.com 1.10,2013-04-15 02:00:00,
2013-04-14 22:15:00,53.5,47.0,29.80,SE,131,7.0,-999.0,78,-99.99,,,0.00,weatherlink.com 1.10,2013-04-15 02:15:00,
2013-04-14 22:30:00,53.4,47.0,29.80,ESE,121,11.0,-999.0,79,-99.99,,,0.00,weatherlink.com 1.10,2013-04-15 02:30:00,
2013-04-14 22:45:00,53.4,47.0,29.80,ESE,110,8.0,-999.0,79,-99.99,,,0.00,weatherlink.com 1.10,2013-04-15 02:45:00,
2013-04-14 23:00:00,53.2,47.0,29.80,SE,132,6.0,-999.0,79,-99.99,,,0.00,weatherlink.com 1.10,2013-04-15 03:00:00,
2013-04-14 23:15:00,53.2,47.0,29.79,SE,130,7.0,-999.0,79,-99.99,,,0.00,weatherlink.com 1.10,2013-04-15 03:15:00,
2013-04-14 23:30:00,53.2,47.0,29.79,SE,130,6.0,-999.0,79,-99.99,,,0.00,weatherlink.com 1.10,2013-04-15 03:30:00,
2013-04-14 23:45:00,53.2,47.0,29.78,ESE,115,7.0,-999.0,78,-99.99,,,0.00,weatherlink.com 1.10,2013-04-15 03:45:00,